• MPC Preparation (Info)

  • MPEC 2023-K44 : 2023 KB

    The following Minor Planet Electronic Circular may be linked-to from your own Web pages, but must not otherwise be redistributed electronically.

    A form allowing access to any MPEC is at the bottom of this page.


    Read MPEC 2023-K43 Read MPEC 2023-K45


    M.P.E.C. 2023-K44                                  Issued 2023 May 17, 22:44 UT
    
         The Minor Planet Electronic Circulars contain information on unusual
             minor planets, routine data on comets and natural satellites,
             and occasional editorial announcements.  They are published
        on behalf of Division F of the International Astronomical Union by the
              Minor Planet Center, Smithsonian Astrophysical Observatory,
                              Cambridge, MA 02138, U.S.A.
    			  
                 Prepared using the Tamkin Foundation Computer Network
    
                                  MPC@CFA.HARVARD.EDU
                URL https://www.minorplanetcenter.net/    ISSN 1523-6714
    
                                     2023 KB                                 
    
    
    Observations:
         K23K00B* C2023 05 16.46651616 14 13.539+05 24 17.70         20.72wXEK044F51
         K23K00B  C2023 05 16.47834316 14 18.155+05 22 06.50         21.05wXEK044F51
         K23K00B  C2023 05 16.49016116 14 22.795+05 19 54.67         20.60wXEK044F51
         K23K00B  C2023 05 16.59723016 15 05.781+04 59 49.47         20.72GVEK044F51
         K23K00B  C2023 05 16.59787116 15 06.034+04 59 42.44         20.48GVEK044F51
         K23K00B  C2023 05 16.59851216 15 06.303+04 59 35.11         20.38GVEK044F51
         K23K00B KC2023 05 16.99991516 18 14.97 +03 41 23.1                XEK044I93
         K23K00B KC2023 05 17.00260916 18 16.075+03 40 40.26         20.5 GVEK044J95
         K23K00B KC2023 05 17.00547616 18 17.37 +03 40 17.5          20.7 GXEK044I93
         K23K00B KC2023 05 17.00737516 18 18.146+03 39 43.60         20.6 GVEK044J95
         K23K00B KC2023 05 17.01101916 18 19.71 +03 39 11.3          20.1 GXEK044I93
         K23K00B KC2023 05 17.01178016 18 20.062+03 38 51.14         20.4 GVEK044J95
         K23K00B KC2023 05 17.24726116 20 10.90 +02 51 50.5          20.6 VuEK044H21
         K23K00B KC2023 05 17.25285216 20 13.35 +02 50 41.9          20.7 VuEK044H21
         K23K00B KC2023 05 17.25704716 20 15.17 +02 49 50.5          20.6 VuEK044H21
         K23K00B KC2023 05 17.83695 16 25 04.97 +00 49 28.1          20.7 VZEK044M49
         K23K00B KC2023 05 17.85192 16 25 12.07 +00 46 11.8          20.8 VZEK044M49
         K23K00B bC2023 05 17.85390916 25 11.82 +00 43 23.0          20.9 GVEK044L01
         K23K00B bC2023 05 17.85539116 25 12.51 +00 43 04.4          20.6 GVEK044L01
         K23K00B IC2023 05 17.85687416 25 13.23 +00 42 45.1          20.5 GVEK044L01
         K23K00B KC2023 05 17.86744 16 25 19.40 +00 42 48.4          20.3 VZEK044M49
         K23K00B KC2023 05 17.90548216 25 37.92 +00 32 07.4          19.6 GXEK044958
         K23K00B KC2023 05 17.91509416 25 42.49 +00 29 58.7          19.8 GXEK044958
         K23K00B KC2023 05 17.92466216 25 47.10 +00 27 52.5          19.7 GXEK044958
    
    Observer details:
    958 Observatoire de Dax.  Observers P. Dupouy, J. B. de Vanssay.  Measurer P.
        Dupouy.  0.43-m f/2.7 Reflector + CCD.
    F51 Pan-STARRS 1, Haleakala.  Observers J. Bulger, T. Lowe, A. Schultz, I.
        Smith, K. Chambers.  Measurers K. Chambers, S. Chastel, T. de Boer, J.
        Fairlamb, H. Gao, M. Huber, C.-C. Lin, E. Magnier, Y. Ramanjooloo, R.
        Wainscoat, R. Weryk.  1.8-m Ritchey-Chretien + CCD.
    H21 Astronomical Research Observatory, Westfield.  Observer R. Holmes.
        Measurers T. Linder, R. Holmes, L. Horn.  0.76-m f/3.0 astrograph + CCD.
    I93 St Pardon de Conques.  Observer F. Losse.  0.40-m f/3.7 reflector + CCD.
    J95 Great Shefford.  Observer P. Birtwhistle.  0.41-m f/6.3 Schmidt-Cassegrain
        + CCD.
    L01 Visnjan Observatory, Tican.  Observer K. Korlevic.  1.0-m f/2.9 reflector
        + CCD.
    M49 IAS Remote Observatory, Hakos.  Observers D. Husar, M. Junius, K. Meo.
        Measurer D. Husar.  0.25-m f/4.6 reflector + CCD.
    
    Orbital elements:
    2023 KB                                                  Earth MOID = 0.0495 AU
    Epoch 2023 Feb. 25.0 TT = JDT 2460000.5                 Bell                    
    M 333.97959              (2000.0)            P               Q                  
    n   0.26673461     Peri.  191.90651     -0.27689475     +0.93669528             
    a   2.3901022      Node    62.34205     -0.86056083     -0.14250408             
    e   0.5580505      Incl.   14.00248     -0.42750949     -0.31983518             
    P   3.70           H   25.15          G   0.15           U   8                  
    Residuals in seconds of arc
    230516 F51  0.3-  0.4-    230517 I93  0.4+  0.6+    230517 M49  0.1-  0.0
    230516 F51  0.5-  0.1+    230517 J95  0.2-  0.2-    230517 L01  0.1+  0.7-
    230516 F51  0.4-  0.0     230517 I93  0.0   0.2+    230517 L01  0.3-  0.2+
    230516 F51  0.2+  0.1-    230517 J95  0.0   0.3-    230517 L01  0.2-  0.4+
    230516 F51  0.0   0.2+    230517 H21  0.1+  0.4+    230517 M49  0.0   0.5+
    230516 F51  0.1+  0.1+    230517 H21  0.4+  0.2+    230517 958  1.0+  0.9+
    230516 I93  0.0   0.1+    230517 H21  0.3+  0.1+    230517 958  0.1+  0.7-
    230517 J95  0.4-  0.1-    230517 M49  0.0   0.1+    230517 958  0.3+  0.2-
    
    Ephemeris:
    2023 KB                  a,e,i = 2.39, 0.56, 14                  q = 1.0563
    Date    TT    R. A. (2000) Decl.     Delta      r    Elong.  Phase     V
    2023 04 17    14 51 04.3 +29 09 06   0.2524  1.2003   136.9    34.8    24.0
    ...
    2023 05 02    15 14 56.9 +26 03 43   0.1541  1.1262   137.6    37.1    22.8
    ...
    2023 05 10    15 39 03.1 +19 03 15   0.1066  1.0961   142.6    34.0    21.9
    ...
    2023 05 16    16 10 53.9 +06 48 54   0.07596 1.0787   152.3    25.9    20.9
    2023 05 17    16 18 13.6 +03 42 51   0.07165 1.0763   154.6    23.8    20.7
    2023 05 18    16 26 21.3 +00 12 50   0.06770 1.0740   157.0    21.6    20.5
    ...
    2023 05 24    17 39 04.6 -28 43 31   0.05488 1.0630   156.3    22.5    20.1
    ...
    2023 06 01    20 37 10.9 -57 57 03   0.07346 1.0564   123.7    52.9    21.5
    ...
    2023 06 16    23 57 37.5 -59 23 41   0.1494  1.0694   107.2    65.2    23.5
    
    M. P. C. Staff               (C) Copyright 2023 MPC           M.P.E.C. 2023-K44
    


    Read MPEC 2023-K43 Read MPEC 2023-K45


    MPEC number:

    Enter an MPEC number in one of the following forms:

    • 1997-B01 (the full form)
    • J97B01 (the packed version of the full form)
    • B01 (the abbreviated form)